RH
49 34 40 62 62 53 49 49 51 54 55 57 58 57 56 56 54 51 50 49 48 47 42 37 33 31 29 28 28 29 31 34 37 44 55 68 76 78 77 77 77 75 71 69 67 69 74 72 66 59 53 50 48 45 40 36 31 24 19 14 12 10 7 6 6 8 7 6 5 4 3 3 2 2 2 2 2 2 2 2 3 3 3 3 3 3
38 28 46 63 56 49 48 48 51 53 54 57 58 58 56 54 52 50 49 48 48 47 43 38 34 31 30 28 27 28 30 33 36 40 51 66 76 77 76 74 75 75 72 71 68 69 73 73 68 61 55 51 49 47 42 38 33 27 21 15 13 10 8 6 6 7 7 6 5 4 3 3 2 2 2 2 2 2 2 2 3 3 3 3 3 3
27 33 55 63 53 47 46 49 51 50 53 57 58 57 55 53 51 48 48 48 47 47 44 39 34 32 30 28 27 27 29 32 34 38 46 62 74 76 74 71 74 77 75 73 69 68 71 72 69 63 57 51 48 48 45 40 36 30 23 17 13 11 9 7 6 6 7 6 5 4 3 2 2 2 2 2 3 3 2 3 3 3 3 3 3 3
29 44 62 61 50 46 47 51 50 48 53 56 56 56 53 52 50 48 48 47 46 46 43 39 34 32 31 29 28 27 28 31 33 35 42 59 73 75 71 69 75 80 78 74 70 67 68 69 68 64 59 53 49 48 47 43 39 33 26 19 14 12 10 8 6 6 7 6 5 4 3 2 2 2 2 3 2 3 3 3 3 3 3 3 3 3
34 50 60 55 47 46 50 49 45 48 54 55 55 53 51 51 49 48 47 46 45 44 42 39 35 33 32 30 29 27 27 29 31 33 39 54 70 73 71 71 77 82 80 75 70 67 65 66 67 65 60 55 51 48 47 45 41 35 29 22 16 12 11 8 6 6 6 7 5 4 4 3 3 2 2 3 2 2 2 2 3 3 3 3 3 3
39 53 57 51 48 49 48 44 44 51 54 54 53 52 51 50 48 47 46 44 43 42 40 38 35 33 32 31 29 27 26 27 29 32 36 48 65 73 74 74 78 84 84 77 70 66 64 63 65 65 61 57 53 49 47 45 42 38 32 25 19 14 11 9 7 6 6 7 6 4 4 3 3 3 3 3 3 3 3 3 3 3 3 3 3 3
44 53 52 47 47 44 41 41 45 52 53 52 52 51 51 49 47 46 43 41 40 39 38 36 34 32 31 31 29 27 25 26 28 30 33 42 61 76 77 75 78 84 85 78 71 67 63 62 63 64 61 57 54 50 48 45 43 40 35 29 22 16 12 10 8 6 5 7 6 5 4 3 3 3 3 3 3 3 3 3 3 3 3 3 3 3
46 49 46 43 42 38 38 42 47 51 51 51 52 51 50 48 45 43 40 39 37 36 36 34 33 32 31 30 28 27 26 25 27 29 32 38 58 77 79 76 78 83 86 80 72 68 64 61 61 62 61 57 54 52 49 46 44 42 39 33 26 19 14 11 9 7 5 6 7 6 4 3 3 3 3 3 3 3 3 3 3 3 3 3 3 3
44 45 43 40 39 37 40 44 48 49 49 50 52 50 49 46 42 40 37 36 34 34 33 32 32 31 30 29 27 27 27 26 27 29 31 36 55 76 80 77 77 81 86 81 73 69 65 62 60 60 60 57 54 53 51 48 45 44 41 37 31 24 16 11 10 8 6 6 6 6 5 4 3 3 3 3 3 3 3 3 3 3 3 3 3 3
42 43 41 38 38 39 42 45 48 48 48 51 51 49 48 43 39 38 35 34 33 32 31 31 31 30 30 28 27 28 27 26 27 28 31 35 51 74 80 77 77 82 87 82 75 70 66 64 61 59 59 58 55 53 52 50 47 46 43 39 34 28 20 13 10 9 7 6 6 7 6 5 4 3 3 3 3 3 3 3 3 3 3 3 3 3
41 41 40 38 40 40 43 47 48 47 49 51 50 49 47 42 39 37 34 33 31 30 30 29 29 29 28 27 27 28 27 27 27 28 31 33 48 72 81 79 79 84 87 82 76 71 67 65 63 60 59 59 56 53 53 53 50 48 45 42 38 32 24 15 11 10 8 6 6 7 6 5 4 3 3 3 3 3 3 3 3 3 3 3 3 3
41 41 39 38 39 41 45 48 47 48 51 50 49 49 46 43 40 37 35 33 31 30 29 28 28 27 27 26 27 29 28 28 26 27 30 32 46 71 84 81 81 86 86 83 78 73 68 66 64 62 60 59 57 54 54 54 52 50 46 44 41 35 28 19 12 10 9 6 5 6 6 5 4 4 3 3 3 3 3 3 3 3 3 3 3 3
41 39 38 39 41 43 47 47 47 49 50 48 48 47 45 43 41 38 36 34 32 31 29 28 27 26 26 27 28 29 29 28 27 27 29 31 44 71 85 81 81 86 85 82 80 74 67 65 65 63 61 60 58 55 54 54 53 52 49 46 42 38 32 24 15 10 9 7 5 6 7 6 5 4 3 3 3 3 3 3 3 3 3 3 3 3
38 38 40 43 46 46 46 45 46 47 46 45 45 44 42 41 40 39 38 36 33 31 29 27 27 26 26 27 28 29 30 28 27 26 28 31 42 67 83 81 80 83 83 81 78 73 67 64 65 64 62 60 58 56 54 53 54 53 51 48 44 41 36 28 19 11 9 8 6 5 6 6 5 4 3 3 3 3 3 3 3 3 3 3 3 3
37 39 41 43 44 44 42 41 42 43 42 42 41 41 42 41 40 40 38 37 33 31 29 27 26 26 25 26 27 29 29 28 28 26 27 30 39 61 80 82 80 80 79 79 75 71 67 64 65 65 63 61 58 56 54 54 54 53 52 50 46 43 39 32 23 13 9 8 7 5 6 6 5 4 4 3 3 3 3 3 3 3 3 3 3 3
38 40 40 40 39 39 39 39 40 40 40 39 39 40 41 40 40 40 37 35 32 30 28 27 27 26 26 27 27 28 29 28 27 25 26 29 36 58 80 83 79 77 77 75 72 70 67 65 66 66 64 62 59 56 55 54 54 53 52 51 48 45 41 36 28 17 10 8 8 6 5 6 6 5 4 3 3 3 3 3 3 3 4 3 3 3
37 38 38 37 36 35 36 38 38 38 38 38 38 39 39 39 39 38 35 33 31 28 27 26 27 26 26 27 26 27 28 27 27 25 25 28 36 58 81 84 78 76 73 70 69 69 68 66 67 69 67 64 60 57 55 54 54 53 52 51 49 46 42 38 32 22 12 8 8 7 5 5 6 5 5 4 3 3 3 3 3 3 3 3 3 3
34 34 34 35 35 35 35 36 36 37 36 36 37 38 38 38 37 35 32 31 29 27 26 26 26 26 26 26 26 27 28 26 26 25 25 28 36 58 82 84 78 75 70 68 68 68 69 68 69 71 68 65 62 58 56 55 54 53 53 51 50 48 44 40 35 27 16 9 8 8 6 5 6 6 5 4 3 3 3 3 3 3 3 3 3 3
32 34 34 33 35 35 34 34 34 35 34 35 36 37 38 37 35 32 30 28 27 26 25 25 25 25 26 26 26 26 27 26 26 25 25 28 37 59 81 83 75 73 70 67 67 67 69 70 71 71 69 66 63 59 57 56 55 55 54 52 50 48 45 41 38 31 20 11 8 8 7 5 5 6 5 4 3 3 3 3 3 3 3 3 3 3
32 33 34 34 34 35 34 34 33 33 32 33 35 36 37 35 32 30 28 27 26 25 25 25 25 25 26 26 26 26 26 26 25 25 25 28 38 59 80 81 73 72 71 68 66 66 69 71 72 71 70 68 65 61 59 57 56 57 55 53 51 49 47 43 40 35 26 15 9 8 8 6 5 6 5 5 4 3 3 3 3 3 3 3 3 3
32 31 33 33 34 33 33 32 32 31 30 31 34 36 34 32 29 28 27 26 24 24 25 25 25 26 26 26 26 27 26 25 25 24 24 28 39 59 78 79 72 71 71 69 66 67 70 72 72 73 71 70 68 63 60 59 58 58 56 54 52 50 48 45 42 38 31 20 11 8 9 7 5 6 6 5 4 3 3 3 3 3 3 3 3 3
32 33 34 34 34 34 32 31 30 30 31 32 34 34 31 28 27 26 26 25 24 24 25 25 26 26 26 27 27 26 26 25 25 24 24 28 38 57 74 76 71 71 71 69 67 68 71 73 73 74 73 72 70 66 62 61 60 60 58 55 53 50 48 46 44 41 35 25 14 8 9 8 6 5 6 5 4 3 3 3 3 3 3 3 3 3
33 35 36 35 33 31 31 30 30 31 34 34 33 30 28 26 24 25 26 25 24 24 24 25 27 27 26 27 27 26 26 25 24 24 23 27 38 56 72 75 72 72 72 70 69 70 73 74 74 74 74 73 72 68 64 63 61 60 59 57 54 51 48 46 44 42 39 30 19 10 8 9 7 5 6 6 5 4 3 3 3 3 3 3 3 3
34 36 38 38 34 31 31 31 32 33 33 33 31 28 25 24 23 24 25 25 25 24 24 25 27 27 27 27 27 26 25 25 24 23 23 27 40 59 73 76 73 73 73 72 72 72 75 76 76 75 75 75 73 70 67 65 62 60 60 58 55 52 49 46 44 43 41 35 25 14 8 9 9 6 6 6 5 4 3 3 3 3 3 3 3 3
34 34 35 37 37 37 37 37 37 34 31 30 28 26 24 23 23 22 23 25 25 25 24 25 27 28 28 28 27 26 25 25 25 23 24 29 44 64 76 77 75 75 75 75 75 77 79 79 77 76 76 76 74 72 69 66 63 61 61 59 57 54 50 47 45 44 43 39 30 19 10 8 10 7 6 6 5 4 3 3 3 3 3 3 3 3
32 31 30 31 33 34 33 33 32 30 28 26 25 24 24 24 23 22 23 24 25 25 26 26 27 28 29 28 27 27 26 26 25 24 25 31 48 70 79 77 76 77 78 80 79 80 82 82 79 78 78 77 75 74 72 69 65 63 62 60 58 56 53 49 46 44 43 41 35 24 13 8 9 9 6 5 6 4 3 3 3 3 3 3 3 3
32 31 30 29 30 30 28 26 26 26 26 24 23 23 24 24 24 23 23 23 24 26 27 27 27 28 28 28 27 26 26 25 25 24 25 33 53 74 81 78 78 79 81 85 84 82 84 84 81 80 79 78 77 76 74 71 68 65 64 61 59 57 54 51 48 45 43 43 38 30 18 10 9 10 7 5 6 5 4 3 3 3 3 3 3 3
33 33 33 31 30 30 29 27 25 25 25 23 23 23 24 25 25 24 23 23 25 26 27 27 28 27 28 27 26 26 25 25 25 24 25 34 55 76 81 79 81 82 85 90 87 83 84 85 83 81 80 80 79 78 76 73 70 67 65 63 61 59 55 52 49 46 44 44 41 35 24 13 8 10 8 6 5 5 4 3 3 3 3 3 3 3
34 36 38 36 31 30 29 27 25 24 24 24 23 24 24 24 25 25 24 23 25 27 27 27 28 28 27 27 26 25 25 25 24 24 26 37 58 77 83 82 84 86 90 93 88 83 84 85 84 82 81 82 80 79 77 74 71 69 66 64 62 59 56 54 51 47 44 44 43 39 30 17 9 9 10 7 5 5 5 3 3 3 3 3 3 3
35 37 38 39 35 32 31 28 24 23 24 25 25 25 24 23 24 24 23 24 25 26 27 27 27 28 27 27 26 26 25 25 24 25 29 42 63 80 84 85 87 90 94 94 88 83 83 84 85 84 82 82 81 80 78 75 73 70 67 66 63 60 58 55 53 49 46 44 44 41 34 23 12 8 10 8 5 5 5 4 3 3 3 3 2 2
35 35 36 38 38 35 32 30 25 22 23 25 26 25 24 23 24 23 23 24 25 26 27 27 27 27 27 27 27 26 25 24 24 27 34 49 68 81 85 87 91 95 96 94 88 84 83 83 85 85 83 83 82 81 78 76 73 70 68 67 65 62 59 57 54 51 47 45 45 44 38 29 17 9 9 10 6 5 5 4 3 3 3 3 3 2
34 34 33 35 36 34 32 31 28 23 23 25 26 25 25 24 23 24 24 24 25 26 27 26 26 27 27 27 27 27 25 24 25 30 42 58 73 82 86 90 95 99 97 93 88 86 84 84 85 86 85 83 82 80 78 76 73 71 70 69 65 62 61 58 55 52 49 46 45 45 41 33 22 11 9 10 8 5 6 5 3 3 3 3 3 3
33 33 32 32 32 31 29 29 28 25 23 24 26 25 24 23 23 24 24 24 25 26 26 26 26 27 27 27 27 26 25 24 27 36 51 66 76 82 87 92 99 101 97 92 89 87 85 85 85 86 86 84 81 80 79 76 74 72 71 69 66 63 61 59 56 53 51 48 46 46 44 37 27 15 9 10 10 6 5 6 4 3 3 3 3 3
33 32 30 28 28 28 28 28 29 28 24 23 25 25 23 22 23 24 24 24 25 26 26 27 26 26 27 26 26 26 24 24 30 44 60 72 79 84 89 95 101 100 95 91 90 89 88 87 86 87 87 85 82 81 79 77 75 73 71 69 66 64 62 59 57 54 52 50 47 47 46 40 32 20 11 10 11 7 5 6 4 3 3 3 3 3
33 31 29 27 26 26 28 28 29 30 26 24 24 24 23 22 22 23 25 25 25 26 26 26 26 26 27 26 26 24 24 28 37 53 69 79 85 89 93 99 102 98 93 91 92 92 91 90 88 87 87 86 84 82 79 78 75 73 72 70 67 65 62 60 58 55 53 51 48 47 48 43 35 25 14 10 12 9 5 5 5 4 3 3 3 3
32 30 28 27 26 26 27 27 27 28 27 25 25 24 23 22 22 23 24 25 25 26 26 26 26 26 26 26 25 23 27 36 47 62 76 86 91 94 97 103 104 98 92 92 94 96 95 93 91 88 87 87 85 82 80 78 76 74 73 71 67 66 64 62 59 56 53 52 49 47 49 45 38 29 17 10 12 11 6 5 5 4 3 3 2 2
33 31 29 27 25 24 25 26 26 27 26 25 25 25 23 21 21 22 24 25 25 25 26 26 26 26 26 25 24 25 33 46 59 72 83 90 94 97 102 109 108 100 95 94 96 99 98 96 93 89 86 87 86 84 82 80 77 76 74 71 69 67 66 63 60 57 54 52 50 48 49 46 39 31 21 11 12 13 8 5 5 4 3 3 2 2
33 31 28 26 23 22 23 24 25 26 26 25 24 24 23 21 21 22 23 24 25 25 26 26 25 25 25 24 24 30 43 58 71 81 88 93 95 98 104 110 108 102 98 96 98 100 99 97 96 91 88 88 87 85 83 80 79 78 75 73 71 69 67 64 61 58 55 53 51 49 48 47 40 33 24 13 11 13 10 6 6 5 4 3 3 2
34 31 27 25 23 22 22 23 24 25 24 24 24 24 23 22 22 22 23 24 25 25 25 25 24 24 24 23 28 39 53 68 80 89 93 94 95 98 104 107 105 102 100 97 98 100 100 99 97 93 90 89 88 87 84 81 80 79 76 75 73 70 68 66 63 59 56 54 52 49 48 47 41 33 26 15 10 13 12 7 6 6 4 3 3 2
35 33 29 25 23 22 22 22 24 24 23 23 23 23 23 22 22 23 23 23 24 25 25 24 23 23 24 27 37 51 63 75 86 94 97 97 97 100 101 102 102 102 100 98 98 100 101 100 98 95 93 91 88 88 86 83 81 80 78 76 74 72 71 68 64 61 58 55 53 49 48 48 42 34 29 18 11 12 13 8 6 6 5 4 3 2
36 35 31 26 23 22 21 22 23 24 23 22 23 23 23 23 22 23 23 23 24 24 24 23 23 24 28 36 48 62 72 81 91 97 100 100 102 101 98 95 96 98 98 98 99 100 100 100 98 95 94 93 91 90 89 86 84 82 81 79 77 74 72 69 66 63 60 57 54 51 48 48 42 35 30 21 12 12 14 9 7 7 6 5 4 3
35 34 30 26 22 21 21 21 22 22 22 22 22 22 23 23 23 23 24 24 24 24 24 24 25 28 37 47 59 69 79 88 96 101 103 106 106 102 95 90 89 93 97 99 99 99 100 99 97 94 94 95 96 94 93 90 86 83 82 81 78 75 73 71 69 66 62 58 55 52 48 47 42 35 31 24 14 11 14 11 7 7 6 5 5 3
34 32 28 24 22 21 21 21 21 21 20 21 22 23 24 24 24 24 24 24 24 24 25 27 31 37 47 58 67 76 85 94 100 103 107 110 110 103 96 89 86 89 96 100 99 99 100 100 98 95 95 98 98 97 96 93 89 86 84 82 79 77 76 74 71 69 64 60 57 53 48 45 41 34 31 26 16 12 14 12 8 7 7 6 5 4
34 32 28 25 23 21 21 21 20 20 20 21 22 24 24 24 24 24 24 24 24 25 28 34 40 48 58 67 75 85 92 98 102 104 108 112 111 106 99 91 85 87 94 99 100 100 99 99 98 96 96 98 99 99 98 96 92 90 87 84 81 79 77 76 73 70 67 63 60 56 49 45 40 33 30 27 18 12 14 13 8 8 7 6 6 4
33 31 27 24 23 22 21 21 20 20 21 22 24 25 25 25 25 24 24 24 25 29 36 44 52 60 67 75 85 93 98 101 103 104 106 110 110 107 102 95 88 87 91 96 99 101 100 99 99 99 99 100 101 101 100 98 94 92 89 86 83 80 79 78 74 72 70 66 63 60 52 46 40 32 28 28 20 13 15 14 10 8 8 7 6 5
30 28 25 23 22 22 21 21 20 20 22 24 25 26 25 24 24 24 25 27 32 39 48 56 63 70 77 84 93 99 101 102 103 102 105 109 109 107 105 99 93 90 91 93 98 102 102 100 100 101 101 101 101 101 101 99 96 93 89 87 86 83 80 79 76 73 71 68 65 62 55 49 42 32 26 26 21 14 15 15 11 9 9 8 7 6
27 24 22 21 21 21 21 21 21 22 24 26 26 25 25 24 24 26 28 34 41 51 60 68 73 78 84 90 97 101 102 102 101 100 103 107 106 105 105 104 99 96 93 93 97 101 102 102 103 102 101 102 102 101 102 102 99 94 90 88 86 83 81 79 78 75 72 69 66 64 57 50 44 34 26 24 19 13 14 16 13 10 10 10 8 6
24 22 21 20 20 21 22 22 22 23 25 26 25 24 23 23 26 33 39 45 53 62 70 76 79 84 89 94 97 100 101 100 99 99 102 105 104 104 104 104 102 101 97 95 97 101 102 102 103 102 101 103 102 101 102 102 99 95 91 89 88 85 83 81 79 77 75 71 69 65 58 51 46 36 27 25 20 12 12 15 14 10 9 9 8 6
24 21 20 20 21 22 23 23 23 23 26 27 26 25 25 25 32 44 53 59 64 70 77 82 84 87 92 95 97 99 99 98 98 99 102 105 105 103 102 102 103 103 102 99 98 100 101 101 102 102 102 103 103 102 101 102 101 96 92 90 91 89 86 84 82 80 78 74 72 68 60 53 47 37 29 28 24 14 11 14 14 11 10 9 8 6
27 24 21 20 21 23 24 23 23 22 24 27 28 30 30 30 39 53 63 66 69 74 80 84 87 90 93 95 96 98 97 96 97 100 104 106 104 101 100 102 103 103 102 101 100 100 100 101 102 102 102 103 104 103 102 102 104 102 97 94 94 92 88 86 83 81 80 77 74 70 63 56 49 39 30 30 28 18 12 13 14 11 10 10 8 6
29 26 24 22 22 23 23 23 22 22 23 26 30 34 36 35 43 57 66 67 71 77 82 85 87 91 94 95 94 94 93 94 98 104 108 108 104 101 99 100 103 104 103 103 102 101 100 99 101 102 102 102 103 103 102 102 103 102 99 96 96 94 90 88 84 81 81 78 75 71 66 59 52 40 31 31 31 22 15 16 16 13 11 11 10 9
Wind_Speed
13 14 20 25 25 26 26 27 30 32 35 37 40 42 45 47 49 51 54 56 58 60 62 64 65 66 67 68 68 67 66 65 65 66 67 69 70 72 75 80 84 88 92 95 98 100 101 104 109 113 115 117 118 120 121 122 122 122 119 114 109 106 103 101 99 96 94 92 91 88 82 77 71 65 59 54 51 48 45 43 42 40 38 38 39 41
9 12 21 24 25 26 27 29 31 34 37 39 42 45 47 49 51 52 55 58 60 62 63 65 66 67 68 68 67 66 66 66 67 67 67 68 70 74 78 82 85 89 93 96 99 101 102 104 108 113 115 117 119 121 122 123 124 124 123 119 114 109 107 105 102 99 97 95 93 89 83 77 71 65 59 55 53 50 48 45 44 42 41 40 39 38
12 15 20 23 24 26 27 30 33 35 38 41 44 47 48 50 52 53 55 58 61 63 64 66 67 68 68 68 68 68 69 69 69 69 68 69 72 76 80 82 85 89 94 97 99 101 102 104 108 112 116 118 120 122 124 125 126 126 126 123 119 114 110 108 106 103 100 98 96 92 86 79 72 66 60 56 53 51 49 47 46 44 43 43 41 40
15 17 20 23 25 26 29 32 34 36 39 42 45 46 48 51 53 55 57 59 61 63 65 66 67 67 68 68 69 70 71 71 70 70 70 72 75 78 80 83 86 90 94 97 99 101 103 105 108 113 116 119 121 123 125 127 128 128 128 127 123 119 114 111 108 106 103 100 98 95 89 82 75 68 62 58 54 51 49 47 45 44 43 43 42 42
17 20 22 24 26 28 31 34 35 37 40 43 45 47 49 51 53 56 59 61 62 63 64 64 65 66 67 68 70 72 72 72 71 71 72 73 76 78 81 84 87 91 94 97 99 102 104 106 109 113 117 120 122 124 126 128 130 130 130 130 128 123 118 113 110 108 105 102 99 97 92 85 79 72 66 62 59 56 53 50 47 44 43 41 41 40
19 21 24 26 29 31 33 35 37 39 42 44 46 48 50 52 55 58 60 62 63 63 63 64 64 66 68 69 71 72 73 73 73 73 73 74 75 78 81 84 88 91 94 97 99 102 104 107 110 114 118 121 123 125 127 130 132 133 133 132 131 127 122 116 112 110 107 103 100 98 93 87 80 74 68 63 61 59 58 55 52 49 46 43 41 40
19 22 24 27 29 31 33 35 38 41 43 45 47 49 51 54 57 60 61 62 62 62 64 65 66 67 69 71 72 73 74 74 74 75 75 74 75 78 81 85 87 90 92 96 99 102 105 108 111 114 117 121 123 126 128 131 133 134 135 134 133 131 126 120 115 111 109 105 102 99 95 89 82 75 69 64 62 60 59 57 55 53 50 47 45 43
20 23 26 28 30 32 34 36 39 41 43 46 48 50 53 56 58 60 62 63 63 64 65 67 69 70 71 73 73 74 76 77 77 77 76 75 76 79 82 84 87 89 91 95 99 102 106 109 112 114 117 121 124 126 128 131 133 135 136 136 135 133 130 123 117 113 110 107 103 100 97 93 86 78 72 66 63 61 60 58 56 54 52 50 48 46
23 25 27 29 31 33 34 37 39 41 44 47 50 52 55 57 59 61 63 64 64 66 66 68 70 72 74 75 75 76 78 79 79 79 78 77 77 80 82 84 86 88 91 95 99 103 106 109 111 113 117 121 124 127 129 131 134 136 138 138 137 135 133 127 121 115 112 109 105 102 99 95 89 82 75 70 65 63 61 60 58 55 52 50 49 47
25 27 29 31 32 33 35 37 39 42 45 48 51 54 57 58 60 61 63 65 66 67 68 70 71 74 75 75 76 76 77 79 80 80 79 79 78 79 81 84 86 89 93 96 100 103 106 108 111 114 117 120 124 127 130 132 134 136 138 139 138 137 135 131 124 118 113 111 107 103 100 97 93 86 79 73 68 65 63 62 60 57 54 52 50 48
27 28 30 32 33 34 36 38 41 44 47 49 52 55 58 60 61 62 63 64 66 68 70 73 74 75 75 76 76 77 78 79 80 80 80 79 78 79 81 84 87 90 94 97 100 103 105 108 111 114 117 120 124 127 130 132 134 136 138 140 140 139 137 134 128 121 115 112 109 105 101 98 95 89 82 76 71 67 65 64 62 60 57 54 51 49
29 30 31 33 34 35 38 40 42 45 47 50 53 56 59 61 63 63 64 65 67 70 73 75 77 77 77 77 78 78 79 80 80 80 80 78 77 78 81 84 87 91 94 97 99 102 105 107 110 114 117 120 124 127 130 132 134 136 138 140 141 140 139 136 132 125 118 113 110 107 103 100 97 92 85 78 73 69 66 65 63 62 59 56 54 51
29 31 32 34 36 38 40 42 44 45 47 49 52 54 55 58 61 63 65 68 70 73 75 76 77 77 77 78 79 80 80 81 81 80 80 78 76 77 80 83 87 90 93 96 99 101 105 107 110 114 117 120 124 127 130 132 134 136 138 140 142 142 140 138 134 128 121 115 112 109 106 102 98 94 88 81 76 71 68 66 64 63 61 58 56 54
30 32 34 36 37 39 41 43 44 45 47 48 50 51 53 55 59 63 67 69 72 75 77 77 77 77 77 79 80 81 81 82 82 81 80 78 76 77 79 83 87 90 93 96 98 101 105 108 110 113 117 121 123 127 130 132 135 137 138 140 142 143 142 140 137 132 125 118 113 111 108 104 100 97 92 84 78 74 71 68 66 64 62 59 57 56
32 33 35 36 38 39 41 43 44 46 48 49 50 53 56 58 61 65 69 72 73 75 76 77 78 79 79 79 80 81 81 82 82 81 81 79 77 77 80 84 87 90 93 96 99 102 106 108 111 114 117 121 123 127 130 132 135 137 138 140 142 143 144 142 139 135 128 121 115 113 110 106 102 99 96 89 82 77 73 71 68 66 63 61 58 56
32 34 35 37 39 40 42 44 46 48 50 52 54 56 58 61 64 67 70 74 75 75 75 77 79 80 80 80 81 81 81 81 81 81 82 81 79 80 82 85 87 91 94 96 99 102 106 109 111 114 117 120 123 126 129 132 134 136 138 140 142 143 145 144 142 138 132 125 118 114 112 109 105 101 99 93 86 80 76 73 70 68 65 62 60 58
34 35 37 39 41 42 44 46 48 50 52 54 57 59 60 62 64 67 69 72 76 78 77 77 78 78 79 80 80 80 82 82 82 82 83 82 81 81 83 85 88 91 93 96 99 102 106 109 111 114 116 119 123 126 129 131 134 136 138 140 142 143 145 145 144 140 135 129 122 117 114 111 107 103 101 97 90 83 78 75 72 69 67 64 62 59
36 38 39 40 42 44 46 48 50 52 54 56 58 60 62 63 65 66 68 70 73 77 79 79 79 79 79 80 80 81 83 83 83 83 84 83 81 81 82 85 87 90 93 96 100 103 106 109 111 113 115 119 122 126 129 131 133 136 138 140 142 143 145 146 146 143 139 132 125 119 116 113 110 106 103 99 93 86 80 77 74 71 68 66 63 61
38 40 41 43 44 46 47 49 51 53 55 57 59 61 63 65 67 69 70 71 73 76 79 80 80 80 81 82 82 83 84 84 84 84 84 83 82 80 81 84 87 90 94 97 100 103 106 108 110 112 115 118 122 125 128 131 133 136 138 140 142 143 145 146 147 145 141 136 129 123 118 115 112 108 105 102 97 89 82 78 75 73 69 67 64 62
40 41 43 45 46 48 50 52 53 55 56 58 60 62 64 67 70 73 74 76 77 78 81 82 81 82 83 84 85 85 85 85 84 84 84 83 82 81 82 84 87 91 94 98 100 103 105 108 110 112 115 118 121 125 128 130 133 135 138 140 142 144 145 147 148 147 144 139 133 126 121 117 115 111 107 104 100 93 85 79 76 74 71 68 65 63
43 44 46 47 49 51 52 54 55 56 57 58 60 62 65 68 71 75 78 79 79 81 83 84 84 84 85 85 86 86 86 86 85 85 85 83 81 80 82 84 88 91 95 98 100 103 106 108 110 112 115 118 121 124 127 130 132 135 137 140 142 143 145 146 148 148 147 142 136 130 124 120 117 114 110 106 103 97 89 81 78 75 73 69 66 64
45 47 49 50 51 53 55 56 57 58 59 59 60 63 65 67 70 74 79 81 82 82 83 85 86 86 85 85 86 87 87 87 86 86 86 84 81 81 82 85 89 92 95 98 101 104 106 108 110 113 115 117 120 123 127 129 132 134 136 139 141 143 145 146 148 149 149 145 140 134 127 122 119 116 113 109 105 100 93 85 79 77 74 71 68 65
46 48 51 53 54 55 56 57 58 59 60 61 62 64 66 68 70 73 78 81 83 83 82 83 86 87 86 86 87 88 89 88 87 87 87 85 82 82 83 86 89 92 95 99 101 104 106 108 110 112 115 117 120 123 126 129 131 133 136 138 141 143 145 146 148 149 150 148 143 137 131 125 121 118 115 111 108 103 96 88 82 78 76 73 70 67
47 48 50 53 56 57 58 59 60 60 61 63 65 67 68 70 71 73 76 80 83 84 81 80 83 86 87 87 88 90 90 90 89 88 87 85 83 83 84 86 90 93 96 99 102 104 106 108 110 112 114 117 119 122 125 128 131 133 135 138 141 143 145 147 148 149 150 149 146 140 134 128 123 120 117 113 110 105 99 92 84 80 78 75 72 69
48 49 49 51 54 56 57 58 60 62 63 64 67 69 71 72 73 73 74 78 82 83 82 80 80 84 86 87 88 89 90 89 89 88 87 84 82 83 84 87 90 94 97 99 102 104 106 108 110 112 114 116 119 122 125 127 130 132 135 137 140 143 145 147 148 149 150 150 148 143 137 131 125 121 118 115 111 107 102 95 88 82 80 77 74 71
50 51 51 52 53 55 56 57 59 61 64 66 68 70 73 75 76 74 74 77 80 82 83 82 80 81 84 85 86 88 88 88 88 88 86 83 82 83 85 88 91 94 97 99 101 103 105 107 109 111 113 115 118 121 124 127 129 132 134 137 140 142 145 147 148 149 150 150 149 145 140 134 127 123 119 116 112 109 104 98 91 85 82 80 77 74
53 54 55 55 56 58 59 59 61 63 65 67 69 71 75 77 79 78 77 78 79 80 82 83 83 82 83 85 86 86 87 87 88 87 85 82 81 83 86 89 91 94 97 99 101 102 104 106 109 111 113 115 118 120 123 126 129 131 134 136 139 142 145 146 148 149 150 150 150 147 142 136 130 125 121 117 114 110 106 101 94 88 84 82 79 75
55 57 59 60 59 61 62 63 64 65 68 70 71 73 76 79 81 82 80 79 80 80 80 82 84 84 85 86 88 87 87 88 88 87 84 82 82 83 86 89 92 94 96 99 100 102 104 106 108 110 113 115 117 120 122 125 128 131 133 136 139 142 144 146 148 149 150 150 151 149 145 139 133 127 123 119 116 112 108 104 98 92 87 84 80 77
56 57 60 63 64 64 65 67 67 68 70 73 74 76 77 79 82 83 81 79 80 82 82 82 84 86 87 88 89 89 88 88 88 87 84 83 83 84 86 89 92 94 96 98 100 102 103 105 107 110 112 114 117 119 121 124 128 130 133 136 138 141 144 146 148 149 150 150 151 151 147 142 136 130 125 121 118 114 110 106 101 95 90 86 82 79
57 58 59 63 66 67 68 71 71 70 72 75 77 77 78 79 81 83 81 79 80 83 83 82 83 85 87 88 89 89 88 88 88 86 84 83 82 84 86 89 92 94 96 98 100 102 103 105 107 110 112 114 116 118 121 124 127 130 132 135 138 141 143 146 147 149 150 150 151 151 149 145 139 133 128 123 119 116 112 108 102 97 92 88 84 81
58 59 59 62 65 68 69 72 74 73 73 75 78 79 79 80 81 84 83 80 80 82 84 83 82 83 86 87 88 89 88 88 87 85 83 82 82 83 86 89 92 95 97 99 100 102 103 105 107 109 111 113 115 118 120 123 126 129 132 134 137 140 143 145 147 149 150 151 151 152 151 147 142 136 130 125 122 118 114 109 104 99 94 90 87 83
60 61 61 62 65 68 69 72 75 76 74 75 78 79 80 80 81 85 85 83 82 83 84 84 84 84 85 85 86 88 88 87 84 82 80 81 81 84 86 89 92 95 97 99 100 102 104 105 107 109 111 113 115 117 120 123 126 129 131 134 137 140 142 145 147 149 150 151 151 152 152 149 144 138 133 128 124 120 116 112 106 101 96 92 88 84
63 64 64 64 65 68 70 71 75 77 75 74 77 79 78 78 80 84 87 85 83 84 85 85 84 84 84 84 84 86 87 85 81 80 80 81 82 85 87 90 93 95 98 99 101 102 104 106 107 109 111 113 115 117 120 122 125 128 131 133 136 139 142 144 147 148 150 151 151 152 152 150 146 140 135 130 125 121 118 114 109 103 97 93 89 85
66 67 68 67 67 68 71 72 75 77 76 74 76 78 78 77 78 82 87 86 84 84 85 85 84 84 84 84 83 85 86 84 81 79 80 82 84 86 89 91 93 96 98 100 101 103 104 106 107 109 110 112 115 117 120 122 125 128 130 133 136 139 142 144 146 148 150 151 151 152 152 151 147 142 136 131 127 122 119 115 111 105 99 94 91 86
69 70 71 71 70 70 71 73 74 77 77 76 77 79 79 78 77 79 84 86 84 83 84 84 83 83 83 83 83 84 84 83 80 79 80 83 86 88 90 92 94 96 98 100 101 103 104 106 107 109 110 112 115 117 119 122 125 128 130 133 136 139 141 144 146 148 149 150 151 152 152 151 148 143 137 132 127 123 119 116 112 107 101 96 92 88
71 72 73 73 72 71 71 73 74 76 78 78 79 81 80 78 76 75 80 84 83 82 82 82 81 82 82 82 82 81 80 80 79 79 80 83 86 88 90 92 94 96 98 100 101 103 104 106 107 109 110 112 115 117 119 122 125 127 130 133 136 138 141 143 145 147 149 150 151 151 151 151 149 143 138 132 128 124 120 117 113 108 103 97 93 89
74 74 74 75 74 71 70 71 73 77 79 79 79 81 81 78 76 74 76 80 80 79 80 80 80 80 81 81 81 78 76 76 77 78 79 82 85 87 90 92 94 96 98 99 101 102 104 106 107 109 111 113 115 117 119 122 124 127 130 132 135 138 140 142 145 147 148 150 151 151 151 151 149 144 138 133 128 125 121 118 114 110 105 99 94 91
76 75 75 75 74 72 71 71 73 76 78 78 80 83 83 79 76 75 76 78 78 78 78 79 79 79 80 80 78 75 72 72 75 77 78 81 84 87 90 92 94 96 98 99 100 102 104 106 107 110 112 113 115 117 120 122 124 127 129 132 134 137 139 142 144 146 148 149 150 151 150 150 149 145 139 134 129 125 122 119 116 112 107 101 96 93
77 76 75 75 74 73 73 73 76 78 79 78 81 86 86 83 79 77 76 77 77 77 77 78 78 78 79 77 75 73 72 72 74 77 79 81 84 87 90 92 94 96 97 99 100 102 104 106 108 110 112 114 115 118 120 122 124 126 129 131 134 136 139 141 144 145 147 149 150 150 150 150 148 145 140 134 129 125 123 120 117 114 110 104 99 95
79 78 77 75 74 74 74 74 77 80 79 79 82 87 89 86 81 79 77 76 76 77 77 78 78 78 77 75 73 74 74 75 76 79 81 83 85 87 90 92 94 96 97 99 100 102 104 106 108 110 112 114 116 118 120 122 124 126 128 130 133 136 138 141 143 145 147 148 150 150 150 149 148 145 140 135 130 126 123 120 118 115 112 107 102 98
81 81 80 77 75 75 74 74 77 79 78 78 82 87 89 86 81 79 79 78 77 77 78 79 78 77 76 74 73 74 76 78 79 81 83 85 87 89 90 91 93 95 97 99 100 102 104 106 108 110 113 115 117 118 120 122 124 126 128 130 132 135 137 140 142 144 146 148 149 150 149 148 147 145 140 135 129 125 122 120 118 116 113 109 105 101
83 84 82 79 77 74 73 75 77 76 75 77 81 85 87 85 81 79 79 79 79 79 79 79 78 76 73 73 74 75 77 79 80 82 85 87 89 90 90 91 93 95 97 99 100 102 104 106 108 111 113 115 117 119 120 122 124 126 128 129 132 134 136 139 141 143 145 147 148 149 149 148 146 144 139 134 129 124 121 119 118 116 113 110 107 102
87 88 85 82 79 75 74 76 77 75 74 75 79 83 85 83 81 80 79 79 79 79 78 77 76 74 72 73 74 75 77 78 80 83 85 88 90 91 91 91 93 95 96 99 101 102 104 106 108 111 113 115 117 119 120 122 124 126 128 129 131 133 135 138 140 142 144 146 148 148 149 147 146 143 138 133 128 124 120 118 117 115 113 110 107 103
92 94 90 86 82 77 75 77 77 76 76 77 79 82 83 82 81 81 80 79 78 77 76 75 74 73 72 73 74 76 77 78 81 83 86 89 91 92 92 92 93 94 96 98 100 102 104 106 108 111 113 115 117 119 121 122 124 126 128 130 131 133 134 137 139 141 143 145 146 148 148 147 145 143 138 133 128 123 119 116 115 114 112 110 107 103
95 97 94 90 86 82 80 80 78 77 79 80 81 82 81 80 81 81 80 78 77 75 74 73 72 72 73 74 75 76 77 79 81 84 86 89 91 93 93 93 93 94 96 98 100 102 104 106 108 111 113 115 117 119 120 122 124 126 128 130 131 133 134 136 138 140 142 144 145 146 147 146 145 142 138 132 128 123 118 115 113 112 111 109 106 102
97 98 95 92 88 84 84 83 79 77 78 80 82 83 80 79 80 80 78 77 76 74 73 73 73 73 74 74 75 77 78 80 82 85 87 89 91 93 94 95 95 95 96 98 99 102 104 106 108 110 112 114 116 118 120 122 124 125 127 129 131 133 134 135 137 139 141 143 144 145 146 145 144 142 137 131 127 123 118 115 112 111 110 109 106 102
97 98 95 92 88 85 84 83 80 77 76 79 81 81 78 77 77 77 76 76 74 74 74 74 74 75 75 76 77 78 80 82 83 86 88 89 91 93 95 96 96 96 97 98 99 101 104 106 108 110 112 114 116 118 120 122 124 125 127 128 131 132 134 135 137 138 140 141 142 143 144 144 143 141 136 130 124 121 118 115 112 110 109 108 105 101
97 95 93 91 88 86 84 81 78 75 75 79 81 78 76 75 75 74 75 75 74 74 75 75 76 76 77 78 78 79 81 83 85 87 89 89 91 92 95 97 98 98 99 99 100 102 104 106 108 110 112 114 116 118 120 122 123 125 126 128 129 131 133 134 136 137 138 139 141 141 142 142 141 140 136 129 123 119 115 112 111 109 108 107 104 101
97 94 92 91 88 85 83 80 76 73 73 76 78 77 75 73 71 70 72 73 74 74 75 76 78 78 78 79 80 81 83 85 87 88 90 90 91 92 94 96 98 99 100 100 101 102 104 106 108 110 112 113 115 117 119 121 123 125 126 127 128 130 132 133 135 136 137 138 139 139 140 140 140 139 135 130 124 119 114 110 108 108 107 106 104 101
97 93 92 92 89 85 82 80 77 73 71 72 74 74 73 72 69 68 70 72 74 75 76 77 78 79 80 82 82 83 85 87 88 89 90 91 92 92 93 95 98 100 101 102 102 103 104 106 108 110 111 113 115 117 118 120 123 125 126 126 128 129 131 132 133 134 135 136 137 138 138 139 138 137 134 129 125 121 116 111 108 106 106 106 105 102
96 94 93 93 90 86 82 80 78 75 73 73 74 73 74 73 71 69 71 74 75 76 78 79 80 81 82 84 85 86 87 88 89 89 90 91 92 92 93 95 97 100 102 103 104 105 105 107 108 110 111 113 114 116 118 119 122 124 125 126 127 128 129 131 132 133 134 134 135 135 136 137 137 136 133 128 124 122 119 115 111 108 106 106 106 104
Wind_Direction
56 50 43 36 33 31 27 23 20 18 17 15 14 12 11 9 7 6 5 3 3 2 1 1 1 1 2 3 3 2 360 359 0 2 2 2 1 1 1 2 3 2 3 4 4 4 3 1 360 0 1 2 3 3 3 3 4 4 3 3 1 0 359 358 357 356 355 354 352 351 350 348 346 344 342 340 338 336 333 329 323 318 312 305 298 293
53 40 33 28 26 25 21 17 15 14 13 12 12 10 9 7 5 5 4 3 2 1 0 360 0 1 1 1 1 0 359 360 1 1 1 1 1 1 2 3 3 2 3 4 4 4 3 2 0 0 1 2 3 4 4 4 4 4 4 4 3 1 0 359 359 358 357 356 355 353 351 350 348 346 344 343 341 339 336 333 329 324 318 312 305 298
43 33 27 22 19 18 16 14 12 11 10 10 10 9 7 6 4 4 4 3 2 0 359 359 359 359 359 359 359 359 360 0 1 0 0 0 1 2 2 3 3 3 4 4 4 4 3 2 1 1 1 3 4 4 4 5 5 5 5 5 4 3 1 0 360 359 358 357 356 355 353 352 351 348 346 345 343 341 338 336 332 328 323 318 311 305
31 25 21 17 14 13 12 12 9 8 8 8 9 7 6 4 2 3 3 2 2 360 358 358 358 358 358 357 358 359 1 0 360 359 359 1 1 1 1 2 3 3 4 4 3 3 3 3 2 2 2 3 4 5 5 5 5 5 5 5 5 4 2 1 1 360 359 358 358 357 355 353 352 350 348 346 345 343 341 338 335 330 326 320 315 310
19 18 15 12 10 9 9 9 6 5 5 6 7 5 4 3 2 2 2 1 0 359 358 357 356 356 356 356 357 360 0 360 359 359 0 1 1 0 1 2 4 4 3 3 3 3 3 3 3 2 2 3 4 5 5 6 6 6 6 6 6 5 3 2 1 1 0 359 359 359 358 356 354 352 350 348 346 345 343 341 338 334 329 324 318 312
12 12 9 7 6 6 6 5 3 3 3 4 4 4 3 2 2 2 1 360 358 357 355 355 355 356 356 356 357 359 359 359 358 360 1 1 0 360 0 2 4 4 3 2 2 2 3 3 4 3 3 3 4 5 5 6 6 6 6 6 6 6 4 3 2 1 1 0 360 360 359 358 356 354 351 349 347 345 344 342 340 337 333 328 323 317
8 7 4 3 3 3 3 1 0 1 0 1 2 2 2 1 1 1 360 358 356 354 353 354 354 355 355 356 357 358 358 358 358 360 1 0 359 360 1 2 3 3 2 2 2 2 3 3 4 4 3 3 4 5 6 6 7 7 6 6 6 6 5 4 2 2 2 1 1 0 0 360 358 356 353 350 348 346 344 342 340 337 334 331 326 322
4 3 0 0 1 0 359 358 358 358 358 359 360 360 1 1 1 360 358 356 354 353 353 353 354 354 355 356 356 357 358 357 358 360 360 359 360 0 1 1 2 2 2 1 2 2 3 3 4 4 3 4 5 5 6 6 7 7 7 7 7 6 5 4 3 2 2 2 1 1 1 0 359 358 355 352 350 347 345 343 340 337 335 332 328 324
360 359 357 358 360 358 356 355 355 356 357 358 358 359 360 0 0 359 357 355 353 352 352 353 354 354 355 355 356 357 357 357 358 359 359 359 360 0 0 0 1 2 2 2 2 2 3 3 3 4 4 4 5 6 6 7 7 7 7 7 7 6 6 5 4 3 2 2 2 1 1 1 360 358 357 354 351 349 346 344 342 339 336 333 330 326
355 355 354 356 357 354 353 352 353 354 356 356 357 358 358 359 359 357 355 354 352 351 351 352 354 355 354 354 355 356 356 357 358 358 358 359 359 359 359 359 360 1 2 2 2 2 2 2 2 3 4 4 5 6 6 7 7 7 7 7 7 6 6 5 4 3 3 3 2 2 2 1 0 359 357 356 353 350 348 345 343 340 337 334 331 328
350 351 351 353 351 349 350 350 351 354 355 355 356 357 357 357 356 355 354 352 351 351 351 352 354 354 353 353 354 355 355 357 357 357 358 359 358 358 358 358 359 1 2 2 1 2 2 2 2 3 4 4 5 5 6 7 7 7 7 7 7 7 6 5 5 4 3 3 3 2 2 2 1 360 358 356 354 352 349 347 345 342 339 336 333 330
347 347 348 348 346 346 348 348 350 353 354 355 356 357 356 355 353 352 351 350 351 351 352 353 353 352 351 352 354 354 355 357 357 357 358 358 357 358 358 358 359 1 1 1 1 1 1 2 2 2 3 4 4 5 6 7 7 7 7 7 7 7 6 6 5 4 3 3 3 3 2 2 1 1 359 357 355 353 351 348 346 343 341 337 334 331
341 343 344 343 343 344 345 346 350 352 352 354 356 355 354 353 351 349 349 350 351 352 352 352 352 351 351 352 353 354 355 356 356 357 357 357 357 357 357 358 359 0 0 0 1 0 0 1 2 2 3 4 4 5 6 7 7 7 7 7 7 7 6 6 5 4 4 3 3 3 3 2 2 1 360 358 356 354 352 350 348 345 342 339 336 333
337 340 341 341 341 342 342 344 348 349 351 353 353 353 352 351 349 348 349 350 351 351 351 351 350 350 350 352 353 353 354 355 355 356 356 357 357 357 357 358 359 359 359 360 0 360 360 1 2 2 3 4 4 5 6 6 7 7 7 7 7 7 6 6 5 5 4 3 3 4 3 2 2 1 0 359 357 355 353 351 349 347 344 341 338 335
334 337 337 337 337 338 340 343 345 348 350 351 351 351 351 350 350 350 349 350 350 351 351 350 349 349 350 351 352 353 353 354 355 355 355 356 356 357 358 358 359 358 358 359 359 359 360 1 2 2 3 3 4 4 5 6 6 7 7 7 7 7 6 6 5 5 4 4 4 4 4 3 2 1 1 359 358 356 355 353 350 348 345 342 339 336
331 333 333 333 334 336 339 342 345 348 349 350 350 350 350 350 350 350 350 349 349 349 350 350 349 349 349 350 351 351 352 353 354 354 354 355 356 357 358 358 358 358 358 358 358 359 360 1 2 2 2 3 3 4 5 6 6 6 6 7 7 7 6 6 5 5 4 4 4 4 4 4 3 2 1 360 358 357 355 354 352 349 347 344 341 337
328 329 330 332 333 336 340 343 345 347 348 349 349 349 349 349 350 350 349 349 348 347 348 349 349 348 349 350 350 351 352 353 353 354 354 355 356 357 358 357 357 356 357 357 358 359 359 0 2 2 2 2 2 3 4 5 6 6 6 6 6 6 6 6 6 5 4 4 4 4 4 4 3 2 2 0 359 357 355 354 353 351 348 345 342 339
325 328 330 331 333 337 341 344 345 346 347 348 347 347 347 348 349 348 348 348 347 346 346 347 347 347 348 348 349 351 352 352 353 354 354 355 356 357 357 356 355 355 356 357 358 359 359 0 1 1 1 2 2 3 4 5 5 6 6 6 6 6 6 6 6 5 4 4 4 4 4 4 4 3 2 1 359 357 356 355 354 352 350 347 344 341
324 327 328 331 334 338 341 343 344 345 346 346 346 346 347 347 347 347 347 347 347 347 347 346 346 347 347 348 349 350 351 352 353 354 354 354 355 356 356 355 354 354 355 356 358 358 359 0 1 1 1 1 2 2 3 4 5 5 5 5 6 6 6 6 6 5 5 4 4 4 4 4 4 3 3 1 360 358 356 355 354 353 351 348 346 342
323 326 328 331 335 338 340 342 343 344 345 345 345 345 346 346 346 345 346 346 347 347 347 345 346 347 347 348 349 349 350 351 353 353 354 354 355 355 355 354 354 354 355 356 357 358 359 360 0 0 1 1 1 2 2 3 4 5 5 5 5 5 5 6 6 5 5 4 4 3 3 4 4 3 3 2 0 359 357 356 354 353 352 349 347 344
323 326 329 332 335 337 339 340 341 342 343 344 344 345 345 346 346 345 345 345 346 347 347 345 345 347 347 347 348 348 350 351 352 353 353 354 354 354 353 353 353 354 355 355 356 358 359 359 360 0 0 1 1 1 2 3 4 4 4 4 5 5 5 5 6 6 5 4 4 3 3 3 4 3 3 2 1 360 358 356 355 354 352 350 348 345
323 326 329 332 334 336 337 338 339 341 341 342 343 344 344 345 346 345 345 344 345 347 347 345 344 346 346 346 347 347 349 350 351 352 353 353 353 353 352 352 353 354 354 355 356 357 358 359 359 360 360 0 0 0 1 2 3 4 4 4 4 4 5 5 5 5 5 5 4 3 3 3 3 3 3 2 1 0 359 357 355 354 353 351 349 347
323 326 329 331 332 334 335 337 338 339 340 341 342 343 343 343 345 346 345 345 345 345 346 346 344 344 345 345 346 347 348 349 351 352 352 353 352 351 351 352 352 353 354 355 356 357 358 359 359 359 359 360 360 360 1 2 2 3 3 3 3 4 4 5 5 5 5 5 4 3 3 3 3 3 3 2 1 0 359 358 356 355 354 352 350 348
322 325 327 329 331 332 334 335 336 338 339 340 340 341 342 343 344 346 345 345 344 343 344 345 345 344 344 345 346 347 348 348 350 351 352 352 351 350 350 351 352 353 354 355 356 357 358 358 358 358 359 359 359 359 0 1 1 2 2 2 3 3 4 4 5 5 5 5 4 3 3 2 3 3 3 2 1 1 360 358 357 356 354 353 351 349
321 323 325 327 328 329 331 332 334 336 338 339 339 340 341 342 343 344 345 345 344 342 342 344 345 344 343 344 345 346 347 347 349 350 351 351 350 349 350 351 352 353 354 355 356 357 357 357 357 358 358 359 359 359 360 0 1 1 2 2 2 2 3 4 4 4 5 5 4 4 3 2 2 2 3 2 1 1 0 359 358 356 355 354 352 350
320 322 324 326 327 327 329 331 333 335 337 338 339 339 340 340 341 342 345 346 344 342 341 343 344 344 343 343 345 345 346 347 348 349 350 350 349 348 349 350 352 352 353 354 355 356 357 356 356 357 357 358 358 359 359 359 360 1 1 1 1 2 2 3 3 4 4 4 4 4 3 2 2 2 2 2 1 1 0 360 359 357 356 355 353 352
320 321 323 325 327 328 329 332 334 335 336 336 338 339 339 339 339 341 344 345 343 342 342 341 342 343 343 343 344 344 345 347 347 348 348 348 348 348 349 350 351 352 353 354 355 356 356 356 356 356 357 357 358 358 358 359 359 360 0 0 1 1 2 2 3 3 4 4 4 4 3 2 1 1 2 2 2 1 0 0 359 358 357 356 354 353
319 321 322 324 326 327 328 330 333 334 335 336 337 339 339 339 339 340 342 344 342 341 342 341 341 342 342 343 343 344 346 346 347 347 347 348 348 348 348 349 350 351 353 354 354 355 355 355 355 356 356 357 358 358 358 358 358 359 359 360 360 0 1 1 2 2 3 3 4 4 3 2 1 1 1 2 2 1 1 0 360 359 358 356 355 353
317 319 321 322 324 326 328 329 331 333 334 335 337 338 338 338 338 338 340 342 342 341 341 341 341 341 342 343 342 343 345 346 346 346 346 347 348 348 348 348 349 351 352 353 353 354 354 355 355 355 356 356 357 357 357 357 358 358 359 359 359 360 360 0 1 2 2 3 3 3 3 2 1 1 1 1 2 1 1 0 360 359 358 357 356 354
315 317 319 320 322 325 326 327 329 331 333 334 335 336 337 338 337 336 337 340 342 340 339 340 341 341 341 342 342 343 344 345 345 345 345 346 347 347 347 347 348 350 352 352 352 353 354 354 354 355 355 356 356 356 357 357 357 357 358 358 359 359 359 360 0 1 2 2 3 3 3 2 1 0 0 0 1 2 1 1 360 359 358 357 356 355
313 315 317 319 320 322 324 325 326 329 332 333 333 334 336 337 336 335 336 339 340 339 338 339 341 341 341 342 342 342 343 344 344 344 344 345 346 346 346 347 348 350 351 351 351 352 353 354 354 354 355 355 355 356 356 356 356 357 357 358 358 358 358 359 359 360 1 2 2 3 3 2 2 0 360 360 0 1 1 1 0 360 359 358 357 356
311 313 315 317 318 320 322 323 324 326 330 331 332 333 334 335 335 335 335 338 339 338 337 338 340 341 341 341 341 341 342 343 343 343 343 344 345 345 345 347 348 349 349 350 350 351 352 353 353 354 354 354 355 355 355 355 356 356 356 357 357 357 357 358 358 359 360 1 2 2 2 2 2 1 360 359 360 1 1 1 0 360 359 358 357 356
310 311 313 315 316 318 320 321 322 324 327 330 331 331 332 333 335 335 334 335 337 337 336 337 339 340 340 340 341 341 340 341 342 342 342 343 344 345 346 347 348 348 348 349 349 350 351 352 353 353 353 353 354 354 355 355 355 355 356 356 356 356 357 357 357 358 359 360 1 2 2 2 2 1 360 359 359 360 0 0 360 360 359 359 358 357
309 310 312 313 315 317 319 321 322 323 326 329 329 329 330 332 335 335 333 333 336 336 336 336 338 338 339 339 340 340 339 339 341 342 342 343 343 345 346 346 347 347 347 348 349 349 350 351 352 352 353 353 353 354 354 354 354 355 355 355 355 356 356 356 357 357 358 359 360 1 1 2 2 1 360 359 358 359 360 0 360 359 359 359 358 358
308 309 311 312 314 317 318 320 322 322 324 327 328 328 330 331 333 334 332 332 334 335 334 335 336 337 338 338 339 339 338 339 341 342 342 342 343 345 345 345 345 346 347 348 348 349 349 350 351 351 352 352 352 353 353 353 354 354 354 354 355 355 355 355 356 356 357 358 359 0 1 1 1 1 360 359 358 358 359 360 360 359 359 359 358 358
307 309 310 312 314 316 318 320 321 322 323 325 327 327 328 328 330 333 332 330 332 333 333 333 335 336 336 337 337 339 339 338 340 341 342 342 343 344 344 344 344 345 346 347 347 348 348 349 350 350 351 351 351 352 352 353 353 353 353 354 354 354 354 354 355 356 356 357 358 359 0 1 1 1 0 359 358 357 358 359 360 359 359 359 359 358
308 309 310 311 313 315 318 319 321 322 322 324 325 325 325 326 328 331 331 329 330 331 332 332 334 335 335 335 336 338 339 338 339 341 342 342 342 343 343 343 343 344 345 346 347 347 347 348 349 349 350 350 351 351 352 352 352 352 353 353 353 353 353 354 354 355 355 356 357 358 360 0 0 0 360 359 358 357 357 358 359 359 359 359 359 359
307 308 309 311 312 314 317 319 320 320 321 322 323 323 323 325 327 329 329 328 329 330 331 331 333 333 333 334 335 337 338 338 339 340 341 341 342 342 342 342 343 343 344 345 346 346 346 347 348 348 349 349 350 350 351 351 351 352 352 352 352 352 352 353 353 354 355 355 356 357 359 359 360 360 360 359 358 357 357 357 359 359 359 359 358 359
306 307 308 310 311 314 316 319 320 319 320 322 323 322 322 323 326 327 327 327 328 329 330 330 331 332 332 334 335 336 338 339 339 339 340 340 341 341 341 341 342 343 344 344 345 345 346 346 347 347 348 348 349 349 350 350 351 351 351 351 351 351 351 352 352 353 354 354 355 356 358 359 359 360 359 359 358 357 356 357 358 359 359 359 358 359
304 306 307 308 310 312 315 317 318 318 319 322 322 321 320 322 324 325 325 326 327 328 328 329 330 332 333 334 336 336 338 339 339 339 339 340 340 340 341 341 341 342 343 343 344 344 345 345 346 346 347 347 348 349 349 349 350 350 350 350 350 350 351 351 352 352 353 353 354 355 357 358 359 359 359 359 358 357 357 356 357 359 359 359 359 358
303 304 305 307 308 310 313 315 315 316 318 320 320 319 318 319 322 324 324 325 327 327 328 329 331 333 334 335 336 337 338 339 339 338 338 338 339 339 339 340 341 341 342 342 343 344 344 344 345 345 346 346 347 347 348 348 348 349 349 349 349 349 350 350 351 351 352 352 353 354 356 357 358 359 359 359 358 358 357 356 357 358 359 360 359 359
301 302 303 305 306 309 311 312 312 314 316 318 318 317 316 318 321 323 324 325 326 327 328 329 331 333 334 335 336 337 337 337 337 337 337 337 337 337 338 339 340 341 341 341 342 343 343 343 344 344 345 345 346 346 347 347 347 348 348 348 348 349 349 349 350 350 351 352 352 353 355 356 358 358 359 359 359 358 357 356 356 357 359 0 360 359
300 300 301 303 305 307 310 310 310 312 315 316 316 315 315 318 321 322 323 325 326 327 329 329 331 332 334 334 335 336 336 336 336 336 336 335 335 336 337 339 340 340 340 341 341 342 342 343 343 343 344 344 345 345 346 346 346 347 347 347 348 348 348 348 349 349 350 351 351 352 354 355 357 358 358 359 359 358 358 357 357 357 359 0 0 360
299 299 301 302 304 306 308 308 309 312 315 316 316 315 316 319 320 321 323 325 325 327 328 328 330 331 332 333 334 334 335 335 334 334 334 334 334 335 336 337 339 339 340 340 340 341 341 342 342 342 343 343 344 344 344 345 345 345 346 346 346 347 347 348 348 349 349 350 351 351 353 354 356 357 358 358 359 359 358 357 357 357 358 360 1 0
298 298 300 301 303 306 308 308 310 313 315 316 315 314 316 319 320 320 322 323 324 325 326 327 329 330 331 332 332 332 333 333 333 333 333 333 333 334 335 336 337 338 339 339 340 340 340 341 341 342 342 342 342 343 343 343 344 344 345 345 345 346 346 347 347 348 348 349 350 351 352 353 355 356 357 358 358 359 359 358 357 357 358 359 1 1
296 297 299 300 303 305 307 307 310 313 315 315 313 313 316 318 318 319 321 322 323 324 325 326 327 328 329 330 330 331 331 331 331 332 332 332 333 333 333 334 336 337 338 339 339 339 339 340 340 341 341 341 341 342 342 342 342 343 344 344 344 344 345 346 346 347 348 348 349 350 351 352 354 356 357 358 358 359 359 358 358 358 358 359 0 1
295 295 297 299 301 303 305 306 308 312 313 312 310 312 315 316 317 318 319 320 322 323 324 324 325 326 327 328 328 329 329 329 330 330 331 331 332 332 332 333 334 336 337 338 338 338 338 339 339 339 340 340 340 340 341 341 341 342 343 343 343 343 344 345 345 346 347 347 348 349 350 352 353 355 356 357 358 358 358 359 358 358 358 358 359 1
293 294 295 297 299 301 303 304 307 310 312 310 308 310 313 314 316 317 318 319 320 321 321 322 323 324 325 326 326 327 327 327 328 329 329 330 331 331 331 332 333 334 335 336 337 337 337 337 338 338 339 339 339 339 339 339 340 340 342 342 342 342 343 344 344 345 346 347 347 348 349 351 352 354 355 356 357 358 358 359 358 358 357 357 358 0
292 294 295 296 297 299 301 303 305 308 309 308 308 309 311 312 314 315 316 316 317 318 319 320 321 322 323 323 324 325 325 326 327 327 328 329 330 331 331 331 331 332 333 335 336 336 336 336 337 337 338 338 338 338 338 338 338 339 340 341 341 341 342 343 343 344 345 346 347 347 349 350 351 353 354 356 357 357 358 359 359 358 357 357 357 359
293 294 294 294 295 298 300 302 303 305 306 306 306 307 309 310 311 312 312 313 314 315 317 318 319 320 321 321 322 323 324 325 325 326 327 328 329 329 330 330 330 331 332 333 334 334 335 335 335 336 336 337 337 337 337 337 337 338 339 340 340 340 341 342 342 343 344 345 346 347 348 349 351 352 354 355 356 357 357 358 359 359 358 357 357 358
293 294 293 293 294 296 299 300 301 303 304 303 304 305 306 307 308 310 311 312 313 314 315 316 317 318 319 320 321 322 322 323 324 324 325 326 327 328 329 329 330 330 330 331 332 333 334 334 334 335 335 335 335 336 336 336 336 336 337 338 339 339 340 341 341 342 343 344 345 346 347 349 350 352 353 355 356 357 358 358 359 359 359 358 357 358